Location: Biltmore Gardens
(41.6070°N, 83.4666°W)
Time: 14:30:24
(UTC+00:00)

BREEZE-M DEB (TANK) - Pass Details

Date: 14 July 2020
Orbit: 308 x 15751 km, 49.4° (Epoch: 04 August)

Event Time Altitude Azimuth Distance (km) Brightness Sun altitude
Rises 03:21:56 0° 300° (WNW) 5,715 8.6 -19.2°
Reaches altitude 10° 03:27:16 10° 299° (WNW) 3,249 7.1 -19.7°
Maximum altitude 03:33:20 72° 217° (SW) 554 2.1 -20.3°
Enters shadow 03:33:34 68° 180° (S) 547 2.0 -20.3°
